Time,TemperatureF,DewpointF,PressureIn,WindDirection,WindDirectionDegrees,WindSpeedMPH,WindSpeedGustMPH,Humidity,HourlyPrecipIn,Conditions,Clouds,dailyrainin,SoftwareType,DateUTC
2013-02-26 00:03:00,46.0,42.7,30.10,NW,315,0.9,1.1,88,0.00,-RA,SKC,0.02,WeatherDisplay:10.37,2013-02-25 23:03:00,
2013-02-26 00:08:00,46.0,42.7,30.10,North,0,1.5,2.3,88,0.00,-RA,SKC,0.02,WeatherDisplay:10.37,2013-02-25 23:08:00,
2013-02-26 00:13:00,46.0,42.7,30.10,NNW,338,1.3,1.3,88,0.00,-RA,SKC,0.02,WeatherDisplay:10.37,2013-02-25 23:13:00,
2013-02-26 00:18:00,46.0,42.7,30.10,North,0,2.0,2.3,88,0.00,BKN,SKC,0.02,WeatherDisplay:10.37,2013-02-25 23:18:00,
2013-02-26 00:23:00,46.0,42.7,30.10,NW,315,0.9,1.1,88,0.00,BKN,SKC,0.02,WeatherDisplay:10.37,2013-02-25 23:23:00,
2013-02-26 00:28:00,46.0,42.7,30.10,NW,315,1.8,2.3,88,0.00,BKN,SKC,0.02,WeatherDisplay:10.37,2013-02-25 23:28:00,
2013-02-26 00:33:00,46.2,42.9,30.10,NW,315,3.6,3.6,88,0.00,BKN,SKC,0.02,WeatherDisplay:10.37,2013-02-25 23:33:00,
2013-02-26 00:38:00,46.2,42.6,30.10,NNW,338,0.1,1.1,87,0.00,BKN,SKC,0.02,WeatherDisplay:10.37,2013-02-25 23:38:00,
2013-02-26 00:43:00,46.2,42.6,30.10,WNW,292,0.0,0.0,87,0.00,BKN,SKC,0.02,WeatherDisplay:10.37,2013-02-25 23:43:00,
2013-02-26 00:48:00,46.0,42.4,30.09,NNW,338,0.9,1.1,87,0.00,BKN,SKC,0.02,WeatherDisplay:10.37,2013-02-25 23:48:00,
2013-02-26 00:53:00,46.2,42.6,30.09,WNW,292,0.4,2.3,87,0.00,BKN,SKC,0.02,WeatherDisplay:10.37,2013-02-25 23:53:00,
2013-02-26 00:58:00,46.2,42.6,30.09,WNW,292,0.8,2.3,87,0.00,BKN,SKC,0.02,WeatherDisplay:10.37,2013-02-25 23:58:00,
2013-02-26 01:03:00,46.2,42.6,30.09,NNW,338,1.3,1.3,87,0.00,BKN,SKC,0.02,WeatherDisplay:10.37,2013-02-26 00:03:00,
2013-02-26 01:08:00,46.2,42.6,30.09,North,0,3.3,3.6,87,0.00,BKN,SKC,0.02,WeatherDisplay:10.37,2013-02-26 00:08:00,
2013-02-26 01:13:00,46.2,42.6,30.09,North,0,3.6,3.6,87,0.00,BKN,SKC,0.02,WeatherDisplay:10.37,2013-02-26 00:13:00,
2013-02-26 01:18:00,46.4,42.4,30.09,NW,315,2.9,3.5,86,0.00,BKN,SKC,0.02,WeatherDisplay:10.37,2013-02-26 00:18:00,
2013-02-26 01:23:00,46.6,42.6,30.09,WNW,292,2.5,2.5,86,0.00,BKN,SKC,0.02,WeatherDisplay:10.37,2013-02-26 00:23:00,
2013-02-26 01:28:00,46.6,42.6,30.09,North,0,3.4,3.5,86,0.00,BKN,SKC,0.02,WeatherDisplay:10.37,2013-02-26 00:28:00,
2013-02-26 01:33:00,46.6,42.6,30.08,NW,315,1.3,1.3,86,0.00,BKN,SKC,0.02,WeatherDisplay:10.37,2013-02-26 00:33:00,
2013-02-26 01:38:00,46.6,42.6,30.08,NNW,338,1.3,1.3,86,0.00,BKN,SKC,0.02,WeatherDisplay:10.37,2013-02-26 00:38:00,
2013-02-26 01:43:00,46.6,42.6,30.08,NNW,338,1.2,2.3,86,0.00,BKN,SKC,0.02,WeatherDisplay:10.37,2013-02-26 00:43:00,
2013-02-26 01:48:00,46.6,42.6,30.08,WNW,292,0.0,0.0,86,0.00,BKN,SKC,0.02,WeatherDisplay:10.37,2013-02-26 00:48:00,
2013-02-26 01:53:00,46.8,42.5,30.08,NNE,22,0.0,0.0,85,0.00,BKN,SKC,0.02,WeatherDisplay:10.37,2013-02-26 00:53:00,
2013-02-26 01:58:00,46.6,42.3,30.08,NNE,22,1.5,2.3,85,0.00,BKN,SKC,0.02,WeatherDisplay:10.37,2013-02-26 00:58:00,
2013-02-26 02:03:00,46.6,42.3,30.08,NNE,22,1.8,2.3,85,0.00,BKN,SKC,0.02,WeatherDisplay:10.37,2013-02-26 01:03:00,
2013-02-26 02:08:00,46.6,42.3,30.08,NW,315,0.6,1.1,85,0.00,BKN,SKC,0.02,WeatherDisplay:10.37,2013-02-26 01:08:00,
2013-02-26 02:13:00,46.2,42.0,30.08,NE,45,0.0,0.0,85,0.00,BKN,SKC,0.02,WeatherDisplay:10.37,2013-02-26 01:13:00,
2013-02-26 02:18:00,46.2,42.0,30.08,NNE,22,0.0,1.1,85,0.00,BKN,SKC,0.02,WeatherDisplay:10.37,2013-02-26 01:18:00,
2013-02-26 02:23:00,46.2,42.0,30.08,NW,315,0.0,0.0,85,0.00,BKN,SKC,0.02,WeatherDisplay:10.37,2013-02-26 01:23:00,
2013-02-26 02:28:00,46.2,42.0,30.08,North,0,0.0,0.0,85,0.00,BKN,SKC,0.02,WeatherDisplay:10.37,2013-02-26 01:28:00,
2013-02-26 02:33:00,46.2,42.0,30.08,NNW,338,0.0,0.0,85,0.00,BKN,SKC,0.02,WeatherDisplay:10.37,2013-02-26 01:33:00,
2013-02-26 02:38:00,46.2,42.0,30.08,NW,315,0.0,0.0,85,0.00,BKN,SKC,0.02,WeatherDisplay:10.37,2013-02-26 01:38:00,
2013-02-26 02:43:00,46.2,42.0,30.08,NNW,338,1.3,1.3,85,0.00,BKN,SKC,0.02,WeatherDisplay:10.37,2013-02-26 01:43:00,
2013-02-26 02:48:00,46.2,42.0,30.08,NNW,338,1.3,1.3,85,0.00,BKN,SKC,0.02,WeatherDisplay:10.37,2013-02-26 01:48:00,
2013-02-26 02:53:00,46.2,42.0,30.08,NNE,22,0.0,0.0,85,0.00,BKN,SKC,0.02,WeatherDisplay:10.37,2013-02-26 01:53:00,
2013-02-26 02:58:00,46.2,42.0,30.08,North,0,0.0,0.0,85,0.00,BKN,SKC,0.02,WeatherDisplay:10.37,2013-02-26 01:58:00,
2013-02-26 03:03:00,46.0,41.8,30.09,ENE,68,0.0,0.0,85,0.00,BKN,SKC,0.02,WeatherDisplay:10.37,2013-02-26 02:03:00,
2013-02-26 03:08:00,45.3,41.1,30.08,NW,315,0.0,0.0,85,0.00,BKN,SKC,0.02,WeatherDisplay:10.37,2013-02-26 02:08:00,
2013-02-26 03:13:00,44.8,40.5,30.08,NNW,338,1.3,1.3,85,0.00,BKN,SKC,0.02,WeatherDisplay:10.37,2013-02-26 02:13:00,
2013-02-26 03:18:00,45.0,40.7,30.09,NW,315,0.7,1.1,85,0.00,BKN,SKC,0.02,WeatherDisplay:10.37,2013-02-26 02:18:00,
2013-02-26 03:23:00,45.0,41.0,30.09,WNW,292,0.0,0.0,86,0.00,BKN,SKC,0.02,WeatherDisplay:10.37,2013-02-26 02:23:00,
2013-02-26 03:28:00,45.1,41.2,30.08,WNW,292,0.0,0.0,86,0.00,BKN,SKC,0.02,WeatherDisplay:10.37,2013-02-26 02:28:00,
2013-02-26 03:33:00,45.3,41.4,30.08,WNW,292,0.0,0.0,86,0.00,BKN,SKC,0.02,WeatherDisplay:10.37,2013-02-26 02:33:00,
2013-02-26 03:38:00,45.1,41.2,30.08,NW,315,0.3,1.1,86,0.00,BKN,SKC,0.02,WeatherDisplay:10.37,2013-02-26 02:38:00,
2013-02-26 03:43:00,45.1,41.2,30.09,NNW,338,0.1,0.0,86,0.00,BKN,SKC,0.02,WeatherDisplay:10.37,2013-02-26 02:43:00,
2013-02-26 03:48:00,44.8,40.8,30.08,North,0,0.9,1.1,86,0.00,BKN,SKC,0.02,WeatherDisplay:10.37,2013-02-26 02:48:00,
2013-02-26 03:53:00,44.6,40.7,30.08,NW,315,1.6,1.6,86,0.00,BKN,SKC,0.02,WeatherDisplay:10.37,2013-02-26 02:53:00,
2013-02-26 03:58:00,44.8,41.1,30.08,NW,315,1.3,1.3,87,0.00,BKN,SKC,0.02,WeatherDisplay:10.37,2013-02-26 02:58:00,
2013-02-26 04:03:00,45.1,41.5,30.08,WNW,292,0.8,2.0,87,0.00,BKN,SKC,0.02,WeatherDisplay:10.37,2013-02-26 03:03:00,
2013-02-26 04:08:00,45.1,41.2,30.08,NW,315,1.4,2.3,86,0.00,BKN,SKC,0.02,WeatherDisplay:10.37,2013-02-26 03:08:00,
2013-02-26 04:13:00,45.3,41.4,30.08,NNW,338,1.4,2.3,86,0.00,BKN,SKC,0.02,WeatherDisplay:10.37,2013-02-26 03:13:00,
2013-02-26 04:18:00,45.5,41.6,30.08,WNW,292,0.0,0.0,86,0.00,BKN,SKC,0.02,WeatherDisplay:10.37,2013-02-26 03:18:00,
2013-02-26 04:24:00,45.5,41.6,30.08,West,270,0.0,0.0,86,0.00,BKN,SKC,0.02,WeatherDisplay:10.37,2013-02-26 03:24:00,
2013-02-26 04:29:00,45.3,41.1,30.08,WNW,292,0.0,0.0,85,0.00,BKN,SKC,0.02,WeatherDisplay:10.37,2013-02-26 03:29:00,
2013-02-26 04:34:00,45.1,41.2,30.08,NW,315,1.0,0.0,86,0.00,BKN,SKC,0.02,WeatherDisplay:10.37,2013-02-26 03:34:00,
2013-02-26 04:39:00,45.1,41.2,30.08,NW,315,0.0,0.0,86,0.00,BKN,SKC,0.02,WeatherDisplay:10.37,2013-02-26 03:39:00,
2013-02-26 04:44:00,44.4,40.5,30.08,NW,315,0.0,0.0,86,0.00,BKN,SKC,0.02,WeatherDisplay:10.37,2013-02-26 03:44:00,
2013-02-26 04:49:00,44.4,40.5,30.08,WNW,292,0.9,1.1,86,0.00,BKN,SKC,0.02,WeatherDisplay:10.37,2013-02-26 03:49:00,
2013-02-26 04:54:00,44.4,40.5,30.08,WNW,292,1.0,1.0,86,0.00,BKN,SKC,0.02,WeatherDisplay:10.37,2013-02-26 03:54:00,
2013-02-26 04:59:00,44.4,40.5,30.08,WNW,294,0.9,1.1,86,0.00,BKN,SKC,0.02,WeatherDisplay:10.37,2013-02-26 03:59:00,
2013-02-26 05:04:00,44.4,40.5,30.08,WNW,294,0.9,1.1,86,0.00,BKN,SKC,0.02,WeatherDisplay:10.37,2013-02-26 04:04:00,
2013-02-26 05:09:00,44.4,40.5,30.08,WNW,294,0.9,1.1,86,0.00,BKN,SKC,0.02,WeatherDisplay:10.37,2013-02-26 04:09:00,
2013-02-26 05:14:00,44.4,40.5,30.08,WNW,294,1.0,1.0,86,0.00,BKN,SKC,0.02,WeatherDisplay:10.37,2013-02-26 04:14:00,
2013-02-26 05:19:00,44.4,40.5,30.08,WNW,294,1.0,1.0,86,0.00,BKN,SKC,0.02,WeatherDisplay:10.37,2013-02-26 04:19:00,
2013-02-26 05:24:00,44.4,40.5,30.08,WNW,294,1.0,1.0,86,0.00,BKN,SKC,0.02,WeatherDisplay:10.37,2013-02-26 04:24:00,
2013-02-26 05:29:00,45.0,41.0,30.08,NW,305,0.0,0.0,86,0.00,BKN,SKC,0.02,WeatherDisplay:10.37,2013-02-26 04:29:00,
2013-02-26 05:34:00,45.0,41.0,30.08,West,270,0.0,0.0,86,0.00,BKN,SKC,0.02,WeatherDisplay:10.37,2013-02-26 04:34:00,
2013-02-26 05:39:00,44.8,40.8,30.08,North,0,0.0,0.0,86,0.00,BKN,SKC,0.02,WeatherDisplay:10.37,2013-02-26 04:39:00,
2013-02-26 05:44:00,45.0,41.0,30.08,NW,313,0.0,0.0,86,0.00,BKN,SKC,0.02,WeatherDisplay:10.37,2013-02-26 04:44:00,
2013-02-26 05:49:00,45.0,41.0,30.09,SSW,210,0.0,0.0,86,0.00,OVC,SKC,0.02,WeatherDisplay:10.37,2013-02-26 04:49:00,
2013-02-26 05:54:00,44.4,40.5,30.09,NNE,22,0.0,0.0,86,0.00,OVC,SKC,0.02,WeatherDisplay:10.37,2013-02-26 04:54:00,
2013-02-26 05:59:00,43.9,40.3,30.08,North,0,0.0,0.0,87,0.00,OVC,SKC,0.02,WeatherDisplay:10.37,2013-02-26 04:59:00,
2013-02-26 06:00:00,43.9,40.3,30.08,NNW,338,0.0,0.0,87,0.00,OVC,SKC,0.02,WeatherDisplay:10.37,2013-02-26 05:00:00,
2013-02-26 06:01:00,43.9,40.3,30.08,NNW,338,0.0,0.0,87,0.00,OVC,SKC,0.02,WeatherDisplay:10.37,2013-02-26 05:01:00,
2013-02-26 06:06:00,44.2,40.6,30.08,NNW,338,0.0,0.0,87,0.00,OVC,SKC,0.02,WeatherDisplay:10.37,2013-02-26 05:06:00,
2013-02-26 06:11:00,44.2,40.6,30.08,WNW,292,0.0,0.0,87,0.00,OVC,SKC,0.02,WeatherDisplay:10.37,2013-02-26 05:11:00,
2013-02-26 06:16:00,44.2,40.6,30.09,NNW,338,0.0,0.0,87,0.00,OVC,SKC,0.02,WeatherDisplay:10.37,2013-02-26 05:16:00,
2013-02-26 06:21:00,44.2,40.6,30.09,NW,315,0.0,0.0,87,0.00,OVC,SKC,0.02,WeatherDisplay:10.37,2013-02-26 05:21:00,
2013-02-26 06:26:00,44.4,40.8,30.09,WNW,292,0.0,0.0,87,0.00,OVC,SKC,0.02,WeatherDisplay:10.37,2013-02-26 05:26:00,
2013-02-26 06:31:00,44.4,40.8,30.09,WNW,292,0.0,0.0,87,0.00,OVC,SKC,0.02,WeatherDisplay:10.37,2013-02-26 05:31:00,
2013-02-26 06:36:00,44.4,40.8,30.09,WNW,292,0.0,0.0,87,0.00,-RA,SKC,0.02,WeatherDisplay:10.37,2013-02-26 05:36:00,
2013-02-26 06:41:00,44.4,40.8,30.10,SSE,158,0.0,0.0,87,0.00,-RA,SKC,0.02,WeatherDisplay:10.37,2013-02-26 05:41:00,
2013-02-26 06:46:00,44.4,40.8,30.10,SW,225,0.0,0.0,87,0.00,-RA,SKC,0.02,WeatherDisplay:10.37,2013-02-26 05:46:00,
2013-02-26 06:51:00,44.4,40.5,30.10,South,180,0.0,0.0,86,0.00,-RA,SKC,0.02,WeatherDisplay:10.37,2013-02-26 05:51:00,
2013-02-26 06:56:00,44.4,40.5,30.10,South,180,0.0,0.0,86,0.00,-RA,SKC,0.02,WeatherDisplay:10.37,2013-02-26 05:56:00,
2013-02-26 07:01:00,44.2,40.6,30.10,SSW,202,0.0,0.0,87,0.00,-RA,SKC,0.00,WeatherDisplay:10.37,2013-02-26 06:01:00,
2013-02-26 07:06:00,44.2,40.6,30.10,WNW,292,0.0,0.0,87,0.00,-RA,SKC,0.00,WeatherDisplay:10.37,2013-02-26 06:06:00,
2013-02-26 07:11:00,44.1,40.4,30.10,NW,315,0.0,0.9,87,0.00,-RA,SKC,0.00,WeatherDisplay:10.37,2013-02-26 06:11:00,
2013-02-26 07:16:00,44.4,40.8,30.10,NNW,338,0.5,1.1,87,0.00,-RA,SKC,0.00,WeatherDisplay:10.37,2013-02-26 06:16:00,
2013-02-26 07:21:00,44.4,40.8,30.10,West,270,1.8,2.3,87,0.00,-RA,SKC,0.00,WeatherDisplay:10.37,2013-02-26 06:21:00,
2013-02-26 07:26:00,44.8,41.4,30.11,North,0,0.0,0.0,88,0.00,-RA,SKC,0.00,WeatherDisplay:10.37,2013-02-26 06:26:00,
2013-02-26 07:31:00,44.8,41.1,30.11,NNW,338,0.0,0.0,87,0.00,-RA,SKC,0.00,WeatherDisplay:10.37,2013-02-26 06:31:00,
2013-02-26 07:36:00,45.0,41.3,30.11,NNW,338,0.0,0.0,87,0.00,BKN,SKC,0.00,WeatherDisplay:10.37,2013-02-26 06:36:00,
2013-02-26 07:41:00,45.1,41.5,30.11,North,0,0.0,3.5,87,0.00,BKN,SKC,0.00,WeatherDisplay:10.37,2013-02-26 06:41:00,
2013-02-26 07:46:00,45.3,41.4,30.11,NNW,338,0.0,0.0,86,0.00,BKN,SKC,0.00,WeatherDisplay:10.37,2013-02-26 06:46:00,
2013-02-26 07:51:00,45.5,41.6,30.11,NNW,338,0.0,0.0,86,0.00,BKN,SKC,0.00,WeatherDisplay:10.37,2013-02-26 06:51:00,
2013-02-26 07:56:00,45.5,41.3,30.11,North,0,0.0,0.0,85,0.00,BKN,SKC,0.00,WeatherDisplay:10.37,2013-02-26 06:56:00,
2013-02-26 08:01:00,46.0,42.1,30.11,NNW,338,0.0,0.0,86,0.00,BKN,SKC,0.00,WeatherDisplay:10.37,2013-02-26 07:01:00,
2013-02-26 08:06:00,46.2,42.0,30.11,NNW,338,0.0,0.0,85,0.00,-RA,SKC,0.00,WeatherDisplay:10.37,2013-02-26 07:06:00,
2013-02-26 08:11:00,46.2,42.0,30.11,NNE,22,0.0,0.0,85,0.00,-RA,SKC,0.00,WeatherDisplay:10.37,2013-02-26 07:11:00,
2013-02-26 08:16:00,46.6,42.3,30.11,WNW,292,0.0,0.0,85,0.00,-RA,SKC,0.00,WeatherDisplay:10.37,2013-02-26 07:16:00,
2013-02-26 08:21:00,46.6,42.0,30.11,NNE,22,0.0,0.0,84,0.00,BKN,SKC,0.00,WeatherDisplay:10.37,2013-02-26 07:21:00,
2013-02-26 08:26:00,46.9,42.4,30.11,ENE,68,0.0,0.0,84,0.00,BKN,SKC,0.00,WeatherDisplay:10.37,2013-02-26 07:26:00,
2013-02-26 08:31:00,47.1,42.2,30.10,ENE,68,0.0,0.0,83,0.00,BKN,SKC,0.00,WeatherDisplay:10.37,2013-02-26 07:31:00,
2013-02-26 08:36:00,47.3,42.7,30.11,ENE,68,0.0,0.0,84,0.00,BKN,SKC,0.00,WeatherDisplay:10.37,2013-02-26 07:36:00,
2013-02-26 08:41:00,47.8,42.9,30.11,NNE,22,0.6,1.1,83,0.00,BKN,SKC,0.00,WeatherDisplay:10.37,2013-02-26 07:41:00,
2013-02-26 08:46:00,48.0,42.8,30.11,ESE,112,0.0,0.0,82,0.00,BKN,SKC,0.00,WeatherDisplay:10.37,2013-02-26 07:46:00,
2013-02-26 08:51:00,48.2,43.0,30.11,WSW,248,0.0,0.0,82,0.00,CLR,SKC,0.00,WeatherDisplay:10.37,2013-02-26 07:51:00,
2013-02-26 08:56:00,48.4,43.1,30.11,SSE,158,0.0,0.0,82,0.00,CLR,SKC,0.00,WeatherDisplay:10.37,2013-02-26 07:56:00,
2013-02-26 09:01:00,48.7,43.2,30.11,NNE,22,0.0,0.0,81,0.00,CLR,SKC,0.00,WeatherDisplay:10.37,2013-02-26 08:01:00,
2013-02-26 09:06:00,48.9,43.3,30.11,East,90,0.0,0.0,81,0.00,CLR,SKC,0.00,WeatherDisplay:10.37,2013-02-26 08:06:00,
2013-02-26 09:11:00,48.7,42.8,30.11,South,180,0.1,1.1,80,0.00,CLR,SKC,0.00,WeatherDisplay:10.37,2013-02-26 08:11:00,
2013-02-26 09:16:00,48.7,42.8,30.11,SSE,158,0.0,0.0,80,0.00,CLR,SKC,0.00,WeatherDisplay:10.37,2013-02-26 08:16:00,
2013-02-26 09:21:00,48.7,42.5,30.11,ESE,112,0.0,0.0,79,0.00,CLR,SKC,0.00,WeatherDisplay:10.37,2013-02-26 08:21:00,
2013-02-26 09:26:00,48.9,42.7,30.11,NW,315,1.2,0.0,79,0.00,CLR,SKC,0.00,WeatherDisplay:10.37,2013-02-26 08:26:00,
2013-02-26 09:31:00,49.3,43.0,30.11,SSW,202,0.0,0.0,79,0.00,CLR,SKC,0.00,WeatherDisplay:10.37,2013-02-26 08:31:00,
2013-02-26 09:36:00,49.3,43.0,30.11,South,180,0.0,0.0,79,0.00,CLR,SKC,0.00,WeatherDisplay:10.37,2013-02-26 08:36:00,
2013-02-26 09:41:00,49.6,43.1,30.11,SE,135,0.0,0.0,78,0.00,CLR,SKC,0.00,WeatherDisplay:10.37,2013-02-26 08:41:00,
2013-02-26 09:46:00,49.8,43.2,30.11,ENE,68,0.6,1.1,78,0.00,CLR,SKC,0.00,WeatherDisplay:10.37,2013-02-26 08:46:00,
2013-02-26 09:51:00,50.4,43.8,30.11,NE,45,0.3,0.0,78,0.00,BKN,SKC,0.00,WeatherDisplay:10.37,2013-02-26 08:51:00,
2013-02-26 09:56:00,50.4,43.8,30.11,NNE,22,0.0,0.0,78,0.00,BKN,SKC,0.00,WeatherDisplay:10.37,2013-02-26 08:56:00,
2013-02-26 10:01:00,50.7,43.8,30.11,East,90,0.0,0.0,77,0.00,BKN,SKC,0.00,WeatherDisplay:10.37,2013-02-26 09:01:00,
2013-02-26 10:06:00,51.1,44.1,30.11,ESE,112,0.0,0.0,77,0.00,BKN,SKC,0.00,WeatherDisplay:10.37,2013-02-26 09:06:00,
2013-02-26 10:11:00,51.6,44.3,30.12,NE,45,0.0,2.2,76,0.00,BKN,SKC,0.00,WeatherDisplay:10.37,2013-02-26 09:11:00,
2013-02-26 10:16:00,51.8,44.5,30.12,South,180,1.6,1.6,76,0.00,BKN,SKC,0.00,WeatherDisplay:10.37,2013-02-26 09:16:00,
2013-02-26 10:21:00,52.2,44.5,30.12,ENE,68,1.1,2.5,75,0.00,SCT,SKC,0.00,WeatherDisplay:10.37,2013-02-26 09:21:00,
2013-02-26 10:26:00,53.1,45.3,30.12,NE,45,2.4,3.5,75,0.00,SCT,SKC,0.00,WeatherDisplay:10.37,2013-02-26 09:26:00,
2013-02-26 10:31:00,53.4,45.3,30.12,East,90,0.3,1.3,74,0.00,SCT,SKC,0.00,WeatherDisplay:10.37,2013-02-26 09:31:00,
2013-02-26 10:36:00,53.2,45.2,30.12,ESE,112,0.6,1.1,74,0.00,SCT,SKC,0.00,WeatherDisplay:10.37,2013-02-26 09:36:00,
2013-02-26 10:41:00,52.9,44.8,30.12,ESE,112,0.0,0.0,74,0.00,SCT,SKC,0.00,WeatherDisplay:10.37,2013-02-26 09:41:00,
2013-02-26 10:46:00,52.5,44.5,30.13,SE,135,1.5,1.5,74,0.00,SCT,SKC,0.00,WeatherDisplay:10.37,2013-02-26 09:46:00,
2013-02-26 10:51:00,52.5,44.5,30.13,East,90,1.3,3.5,74,0.00,SCT,SKC,0.00,WeatherDisplay:10.37,2013-02-26 09:51:00,
2013-02-26 10:56:00,52.7,44.6,30.13,ENE,68,0.0,0.0,74,0.00,SCT,SKC,0.00,WeatherDisplay:10.37,2013-02-26 09:56:00,
2013-02-26 11:01:00,52.9,44.5,30.13,ESE,112,2.9,3.5,73,0.00,SCT,SKC,0.00,WeatherDisplay:10.37,2013-02-26 10:01:00,
2013-02-26 11:06:00,52.5,43.4,30.13,East,90,2.1,2.3,71,0.00,BKN,SKC,0.00,WeatherDisplay:10.37,2013-02-26 10:06:00,
2013-02-26 11:11:00,52.2,43.4,30.13,SSE,158,2.6,3.5,72,0.00,BKN,SKC,0.00,WeatherDisplay:10.37,2013-02-26 10:11:00,
2013-02-26 11:16:00,52.0,43.2,30.13,SSE,158,1.3,1.3,72,0.00,BKN,SKC,0.00,WeatherDisplay:10.37,2013-02-26 10:16:00,
2013-02-26 11:21:00,52.0,43.2,30.13,South,180,2.2,2.3,72,0.00,BKN,SKC,0.00,WeatherDisplay:10.37,2013-02-26 10:21:00,
2013-02-26 11:26:00,52.2,43.4,30.13,SW,225,0.9,0.0,72,0.00,BKN,SKC,0.00,WeatherDisplay:10.37,2013-02-26 10:26:00,
2013-02-26 11:31:00,52.2,43.4,30.13,SW,225,0.0,0.0,72,0.00,BKN,SKC,0.00,WeatherDisplay:10.37,2013-02-26 10:31:00,
2013-02-26 11:36:00,52.5,43.4,30.13,South,180,3.8,3.8,71,0.00,BKN,SKC,0.00,WeatherDisplay:10.37,2013-02-26 10:36:00,
2013-02-26 11:41:00,52.5,43.4,30.13,SSE,158,1.0,2.5,71,0.00,BKN,SKC,0.00,WeatherDisplay:10.37,2013-02-26 10:41:00,
2013-02-26 11:46:00,52.5,43.4,30.12,SSE,158,1.7,2.7,71,0.00,BKN,SKC,0.00,WeatherDisplay:10.37,2013-02-26 10:46:00,
2013-02-26 11:51:00,52.5,43.8,30.12,SSE,158,2.4,2.4,72,0.00,BKN,SKC,0.00,WeatherDisplay:10.37,2013-02-26 10:51:00,
2013-02-26 11:56:00,52.5,43.4,30.12,SSE,158,0.7,1.1,71,0.00,BKN,SKC,0.00,WeatherDisplay:10.37,2013-02-26 10:56:00,
2013-02-26 12:01:00,53.2,44.4,30.12,South,180,2.5,2.5,72,0.00,BKN,SKC,0.00,WeatherDisplay:10.37,2013-02-26 11:01:00,
2013-02-26 12:06:00,54.0,44.4,30.12,SSE,158,1.6,2.3,70,0.00,BKN,SKC,0.00,WeatherDisplay:10.37,2013-02-26 11:06:00,
2013-02-26 12:11:00,54.0,44.4,30.12,East,90,0.4,2.3,70,0.00,BKN,SKC,0.00,WeatherDisplay:10.37,2013-02-26 11:11:00,
2013-02-26 12:16:00,54.1,44.9,30.12,SSE,158,2.9,3.5,71,0.00,BKN,SKC,0.00,WeatherDisplay:10.37,2013-02-26 11:16:00,
2013-02-26 12:21:00,53.8,44.2,30.12,SE,135,2.2,3.5,70,0.00,BKN,SKC,0.00,WeatherDisplay:10.37,2013-02-26 11:21:00,
2013-02-26 12:26:00,54.0,44.8,30.12,East,90,0.5,0.0,71,0.00,BKN,SKC,0.00,WeatherDisplay:10.37,2013-02-26 11:26:00,
2013-02-26 12:31:00,54.1,44.9,30.11,NE,45,2.5,2.5,71,0.00,BKN,SKC,0.00,WeatherDisplay:10.37,2013-02-26 11:31:00,
2013-02-26 12:36:00,54.7,45.5,30.11,East,90,1.1,1.1,71,0.00,BKN,SKC,0.00,WeatherDisplay:10.37,2013-02-26 11:36:00,
2013-02-26 12:41:00,54.5,44.5,30.11,SSW,202,1.1,1.1,69,0.00,BKN,SKC,0.00,WeatherDisplay:10.37,2013-02-26 11:41:00,
2013-02-26 12:46:00,54.3,44.4,30.11,ENE,68,1.4,2.5,69,0.00,BKN,SKC,0.00,WeatherDisplay:10.37,2013-02-26 11:46:00,
2013-02-26 12:51:00,54.7,44.7,30.11,East,90,1.6,1.6,69,0.00,BKN,SKC,0.00,WeatherDisplay:10.37,2013-02-26 11:51:00,
2013-02-26 12:56:00,54.9,44.9,30.11,ESE,112,0.1,0.7,69,0.00,BKN,SKC,0.00,WeatherDisplay:10.37,2013-02-26 11:56:00,
2013-02-26 13:01:00,55.0,45.1,30.11,East,90,0.6,2.3,69,0.00,BKN,SKC,0.00,WeatherDisplay:10.37,2013-02-26 12:01:00,
2013-02-26 13:06:00,54.9,44.9,30.11,SE,135,0.0,0.0,69,0.00,BKN,SKC,0.00,WeatherDisplay:10.37,2013-02-26 12:06:00,
2013-02-26 13:11:00,54.9,45.3,30.11,ESE,112,0.2,2.3,70,0.00,BKN,SKC,0.00,WeatherDisplay:10.37,2013-02-26 12:11:00,
2013-02-26 13:16:00,54.9,44.9,30.11,ENE,68,0.7,1.1,69,0.00,BKN,SKC,0.00,WeatherDisplay:10.37,2013-02-26 12:16:00,
2013-02-26 13:21:00,55.0,45.1,30.11,North,0,0.0,1.1,69,0.00,BKN,SKC,0.00,WeatherDisplay:10.37,2013-02-26 12:21:00,
2013-02-26 13:26:00,55.0,45.1,30.10,East,90,0.0,1.1,69,0.00,BKN,SKC,0.00,WeatherDisplay:10.37,2013-02-26 12:26:00,
2013-02-26 13:31:00,55.2,45.2,30.10,NE,45,0.2,1.1,69,0.00,BKN,SKC,0.00,WeatherDisplay:10.37,2013-02-26 12:31:00,
2013-02-26 13:36:00,55.2,45.2,30.10,SE,135,0.0,0.0,69,0.00,BKN,SKC,0.00,WeatherDisplay:10.37,2013-02-26 12:36:00,
2013-02-26 13:41:00,55.2,45.2,30.10,NNE,22,0.0,2.2,69,0.00,BKN,SKC,0.00,WeatherDisplay:10.37,2013-02-26 12:41:00,
2013-02-26 13:46:00,54.7,44.7,30.10,SE,135,0.0,0.0,69,0.00,BKN,SKC,0.00,WeatherDisplay:10.37,2013-02-26 12:46:00,
2013-02-26 13:51:00,54.3,44.4,30.10,NW,315,0.0,2.3,69,0.00,BKN,SKC,0.00,WeatherDisplay:10.37,2013-02-26 12:51:00,
2013-02-26 13:56:00,54.3,44.4,30.10,NNW,336,1.0,1.0,69,0.00,BKN,SKC,0.00,WeatherDisplay:10.37,2013-02-26 12:56:00,
2013-02-26 14:01:00,54.3,44.4,30.10,North,0,1.3,1.3,69,0.00,BKN,SKC,0.00,WeatherDisplay:10.37,2013-02-26 13:01:00,
2013-02-26 14:06:00,54.7,44.7,30.10,NE,45,2.2,2.3,69,0.00,BKN,SKC,0.00,WeatherDisplay:10.37,2013-02-26 13:06:00,
2013-02-26 14:11:00,54.7,44.7,30.10,NNE,22,0.4,0.0,69,0.00,BKN,SKC,0.00,WeatherDisplay:10.37,2013-02-26 13:11:00,
2013-02-26 14:16:00,54.8,44.8,30.10,NE,51,1.0,2.0,69,0.00,BKN,SKC,0.00,WeatherDisplay:10.37,2013-02-26 13:16:00,
2013-02-26 14:21:00,54.9,44.9,30.10,SSW,202,0.0,0.0,69,0.00,BKN,SKC,0.00,WeatherDisplay:10.37,2013-02-26 13:21:00,
2013-02-26 14:26:00,54.9,44.9,30.10,ESE,118,0.0,0.0,69,0.00,BKN,SKC,0.00,WeatherDisplay:10.37,2013-02-26 13:26:00,
2013-02-26 14:31:00,55.2,45.2,30.09,East,94,0.0,0.0,69,0.00,BKN,SKC,0.00,WeatherDisplay:10.37,2013-02-26 13:31:00,
2013-02-26 14:36:00,55.4,45.4,30.09,NNE,22,0.9,2.3,69,0.00,BKN,SKC,0.00,WeatherDisplay:10.37,2013-02-26 13:36:00,
2013-02-26 14:41:00,55.6,45.6,30.09,NE,41,0.0,0.0,69,0.00,BKN,SKC,0.00,WeatherDisplay:10.37,2013-02-26 13:41:00,
2013-02-26 14:46:00,55.7,45.7,30.09,NNE,18,1.0,1.0,69,0.00,BKN,SKC,0.00,WeatherDisplay:10.37,2013-02-26 13:46:00,
2013-02-26 14:51:00,55.8,45.7,30.09,NNW,331,0.0,1.0,69,0.00,BKN,SKC,0.00,WeatherDisplay:10.37,2013-02-26 13:51:00,
2013-02-26 14:56:00,55.8,45.4,30.09,NE,55,0.0,0.0,68,0.00,BKN,SKC,0.00,WeatherDisplay:10.37,2013-02-26 13:56:00,
2013-02-26 15:01:00,55.6,45.2,30.09,WNW,292,0.0,0.0,68,0.00,BKN,SKC,0.00,WeatherDisplay:10.37,2013-02-26 14:01:00,
2013-02-26 15:06:00,55.6,45.6,30.09,NW,315,0.3,1.1,69,0.00,BKN,SKC,0.00,WeatherDisplay:10.37,2013-02-26 14:06:00,
2013-02-26 15:11:00,55.6,45.6,30.09,NNW,338,0.0,0.0,69,0.00,BKN,SKC,0.00,WeatherDisplay:10.37,2013-02-26 14:11:00,
2013-02-26 15:16:00,55.8,45.7,30.09,NNW,333,0.0,1.0,69,0.00,BKN,SKC,0.00,WeatherDisplay:10.37,2013-02-26 14:16:00,
2013-02-26 15:21:00,55.9,45.5,30.09,North,6,0.0,0.0,68,0.00,BKN,SKC,0.00,WeatherDisplay:10.37,2013-02-26 14:21:00,
2013-02-26 15:26:00,55.8,45.4,30.09,NE,54,0.0,1.0,68,0.00,BKN,SKC,0.00,WeatherDisplay:10.37,2013-02-26 14:26:00,
2013-02-26 15:31:00,55.8,45.4,30.08,East,81,0.0,0.0,68,0.00,BKN,SKC,0.00,WeatherDisplay:10.37,2013-02-26 14:31:00,
2013-02-26 15:36:00,55.6,45.2,30.09,East,90,0.0,0.0,68,0.00,BKN,SKC,0.00,WeatherDisplay:10.37,2013-02-26 14:36:00,
2013-02-26 15:41:00,55.4,45.0,30.09,SSE,158,0.0,0.0,68,0.00,BKN,SKC,0.00,WeatherDisplay:10.37,2013-02-26 14:41:00,
2013-02-26 15:46:00,55.6,45.6,30.08,WNW,292,0.0,0.0,69,0.00,BKN,SKC,0.00,WeatherDisplay:10.37,2013-02-26 14:46:00,
2013-02-26 15:51:00,55.3,45.3,30.08,SSW,202,0.0,0.0,69,0.00,SCT,SKC,0.00,WeatherDisplay:10.37,2013-02-26 14:51:00,
2013-02-26 15:56:00,55.2,45.2,30.08,East,90,1.0,1.0,69,0.00,SCT,SKC,0.00,WeatherDisplay:10.37,2013-02-26 14:56:00,
2013-02-26 16:01:00,55.2,45.6,30.08,WNW,292,0.0,0.0,70,0.00,SCT,SKC,0.00,WeatherDisplay:10.37,2013-02-26 15:01:00,
2013-02-26 16:06:00,55.0,45.4,30.08,NW,315,0.0,0.0,70,0.00,SCT,SKC,0.00,WeatherDisplay:10.37,2013-02-26 15:06:00,
2013-02-26 16:11:00,55.0,45.4,30.08,North,0,0.0,0.0,70,0.00,SCT,SKC,0.00,WeatherDisplay:10.37,2013-02-26 15:11:00,
2013-02-26 16:16:00,54.9,45.3,30.08,SSE,158,0.0,0.0,70,0.00,CLR,SKC,0.00,WeatherDisplay:10.37,2013-02-26 15:16:00,
2013-02-26 16:21:00,55.0,45.4,30.08,NNE,22,0.5,1.1,70,0.00,CLR,SKC,0.00,WeatherDisplay:10.37,2013-02-26 15:21:00,
2013-02-26 16:26:00,55.0,45.4,30.08,WNW,292,2.0,2.3,70,0.00,CLR,SKC,0.00,WeatherDisplay:10.37,2013-02-26 15:26:00,
2013-02-26 16:31:00,54.9,46.0,30.08,NW,325,0.0,0.0,72,0.00,CLR,SKC,0.00,WeatherDisplay:10.37,2013-02-26 15:31:00,
2013-02-26 16:36:00,54.9,46.0,30.08,NW,315,0.0,0.0,72,0.00,CLR,SKC,0.00,WeatherDisplay:10.37,2013-02-26 15:36:00,
2013-02-26 16:41:00,54.9,46.0,30.08,NW,315,0.0,0.0,72,0.00,CLR,SKC,0.00,WeatherDisplay:10.37,2013-02-26 15:41:00,
2013-02-26 16:46:00,54.9,46.0,30.08,NW,316,0.0,0.0,72,0.00,CLR,SKC,0.00,WeatherDisplay:10.37,2013-02-26 15:46:00,
2013-02-26 16:51:00,54.9,46.0,30.08,NW,316,0.0,0.0,72,0.00,CLR,SKC,0.00,WeatherDisplay:10.37,2013-02-26 15:51:00,
2013-02-26 16:56:00,54.9,46.0,30.08,NW,316,0.0,0.0,72,0.00,CLR,SKC,0.00,WeatherDisplay:10.37,2013-02-26 15:56:00,
2013-02-26 17:01:00,54.9,46.0,30.08,NW,316,0.0,0.0,72,0.00,CLR,SKC,0.00,WeatherDisplay:10.37,2013-02-26 16:01:00,
2013-02-26 17:06:00,52.7,45.0,30.08,WNW,292,0.0,0.0,75,0.00,CLR,SKC,0.00,WeatherDisplay:10.37,2013-02-26 16:06:00,
2013-02-26 17:11:00,52.7,45.3,30.08,West,270,0.0,0.0,76,0.00,CLR,SKC,0.00,WeatherDisplay:10.37,2013-02-26 16:11:00,
2013-02-26 17:16:00,52.3,45.3,30.08,West,270,0.0,0.0,77,0.00,CLR,SKC,0.00,WeatherDisplay:10.37,2013-02-26 16:16:00,
2013-02-26 17:21:00,51.6,44.6,30.08,West,270,0.0,0.0,77,0.00,CLR,SKC,0.00,WeatherDisplay:10.37,2013-02-26 16:21:00,
2013-02-26 17:26:00,51.4,44.8,30.08,South,180,0.0,0.0,78,0.00,CLR,SKC,0.00,WeatherDisplay:10.37,2013-02-26 16:26:00,
2013-02-26 17:31:00,51.4,44.8,30.08,South,180,0.0,0.0,78,0.00,CLR,SKC,0.00,WeatherDisplay:10.37,2013-02-26 16:31:00,
2013-02-26 17:36:00,51.3,45.0,30.08,South,180,0.0,0.0,79,0.00,CLR,SKC,0.00,WeatherDisplay:10.37,2013-02-26 16:36:00,
2013-02-26 17:41:00,51.1,44.8,30.09,South,180,1.6,1.6,79,0.00,CLR,SKC,0.00,WeatherDisplay:10.37,2013-02-26 16:41:00,
2013-02-26 17:46:00,51.1,44.8,30.09,South,180,0.6,1.1,79,0.00,BKN,SKC,0.00,WeatherDisplay:10.37,2013-02-26 16:46:00,
2013-02-26 17:51:00,51.1,44.8,30.09,SSE,158,0.7,1.1,79,0.00,BKN,SKC,0.00,WeatherDisplay:10.37,2013-02-26 16:51:00,
2013-02-26 17:56:00,51.1,44.8,30.09,SSE,158,0.7,1.1,79,0.00,BKN,SKC,0.00,WeatherDisplay:10.37,2013-02-26 16:56:00,
2013-02-26 18:01:00,51.1,44.8,30.10,SSE,158,0.0,0.0,79,0.00,BKN,SKC,0.00,WeatherDisplay:10.37,2013-02-26 17:01:00,
2013-02-26 18:06:00,51.1,44.8,30.10,South,180,0.0,0.0,79,0.00,BKN,SKC,0.00,WeatherDisplay:10.37,2013-02-26 17:06:00,
2013-02-26 18:11:00,51.1,44.8,30.10,WSW,248,0.0,0.0,79,0.00,BKN,SKC,0.00,WeatherDisplay:10.37,2013-02-26 17:11:00,
2013-02-26 18:16:00,51.1,44.8,30.10,SSE,158,1.0,2.3,79,0.00,CLR,SKC,0.00,WeatherDisplay:10.37,2013-02-26 17:16:00,
2013-02-26 18:21:00,50.9,44.6,30.10,South,180,0.1,1.1,79,0.00,CLR,SKC,0.00,WeatherDisplay:10.37,2013-02-26 17:21:00,
2013-02-26 18:26:00,50.9,44.6,30.10,South,180,0.0,0.0,79,0.00,CLR,SKC,0.00,WeatherDisplay:10.37,2013-02-26 17:26:00,
2013-02-26 18:31:00,50.9,44.6,30.10,SSE,158,0.0,0.0,79,0.00,CLR,SKC,0.00,WeatherDisplay:10.37,2013-02-26 17:31:00,
2013-02-26 18:36:00,50.7,44.4,30.10,South,180,0.0,0.0,79,0.00,CLR,SKC,0.00,WeatherDisplay:10.37,2013-02-26 17:36:00,
2013-02-26 18:41:00,50.5,44.6,30.10,South,180,0.0,0.0,80,0.00,CLR,SKC,0.00,WeatherDisplay:10.37,2013-02-26 17:41:00,
2013-02-26 18:46:00,50.4,44.4,30.09,WNW,292,0.0,0.0,80,0.00,CLR,SKC,0.00,WeatherDisplay:10.37,2013-02-26 17:46:00,
2013-02-26 18:51:00,50.4,44.4,30.10,WNW,292,0.0,0.0,80,0.00,CLR,SKC,0.00,WeatherDisplay:10.37,2013-02-26 17:51:00,
2013-02-26 18:56:00,49.8,44.2,30.10,WNW,292,0.0,0.0,81,0.00,CLR,SKC,0.00,WeatherDisplay:10.37,2013-02-26 17:56:00,
2013-02-26 19:01:00,49.6,44.0,30.10,West,270,0.0,0.0,81,0.00,CLR,SKC,0.00,WeatherDisplay:10.37,2013-02-26 18:01:00,
2013-02-26 19:06:00,49.6,44.0,30.10,South,180,0.5,1.1,81,0.00,CLR,SKC,0.00,WeatherDisplay:10.37,2013-02-26 18:06:00,
2013-02-26 19:11:00,49.3,44.0,30.10,NE,45,0.0,0.0,82,0.00,CLR,SKC,0.00,WeatherDisplay:10.37,2013-02-26 18:11:00,
2013-02-26 19:16:00,49.1,43.8,30.10,NNE,22,0.0,0.0,82,0.00,BKN,SKC,0.00,WeatherDisplay:10.37,2013-02-26 18:16:00,
2013-02-26 19:21:00,49.1,43.8,30.10,WNW,292,0.0,0.0,82,0.00,BKN,SKC,0.00,WeatherDisplay:10.37,2013-02-26 18:21:00,
2013-02-26 19:26:00,48.9,44.0,30.10,West,270,0.0,0.0,83,0.00,BKN,SKC,0.00,WeatherDisplay:10.37,2013-02-26 18:26:00,
2013-02-26 19:31:00,48.7,43.8,30.10,NW,315,0.0,0.0,83,0.00,BKN,SKC,0.00,WeatherDisplay:10.37,2013-02-26 18:31:00,
2013-02-26 19:36:00,48.7,44.1,30.11,WNW,292,0.0,0.0,84,0.00,BKN,SKC,0.00,WeatherDisplay:10.37,2013-02-26 18:36:00,
2013-02-26 19:41:00,48.6,43.9,30.11,WNW,292,0.0,0.0,84,0.00,BKN,SKC,0.00,WeatherDisplay:10.37,2013-02-26 18:41:00,
2013-02-26 19:46:00,48.4,43.8,30.10,WNW,292,0.0,0.0,84,0.00,BKN,SKC,0.00,WeatherDisplay:10.37,2013-02-26 18:46:00,
2013-02-26 19:51:00,48.0,43.4,30.10,WNW,292,0.0,0.0,84,0.00,BKN,SKC,0.00,WeatherDisplay:10.37,2013-02-26 18:51:00,
2013-02-26 19:56:00,48.0,43.4,30.10,WNW,292,0.0,0.0,84,0.00,BKN,SKC,0.00,WeatherDisplay:10.37,2013-02-26 18:56:00,
2013-02-26 20:01:00,48.0,43.4,30.10,WNW,292,0.0,0.0,84,0.00,BKN,SKC,0.00,WeatherDisplay:10.37,2013-02-26 19:01:00,
2013-02-26 20:06:00,48.0,43.4,30.10,WNW,292,0.0,0.0,84,0.00,BKN,SKC,0.00,WeatherDisplay:10.37,2013-02-26 19:06:00,
2013-02-26 20:11:00,47.5,43.2,30.10,NW,315,0.0,0.0,85,0.00,BKN,SKC,0.00,WeatherDisplay:10.37,2013-02-26 19:11:00,
2013-02-26 20:16:00,47.3,43.0,30.10,NW,315,0.0,0.0,85,0.00,CLR,SKC,0.00,WeatherDisplay:10.37,2013-02-26 19:16:00,
2013-02-26 20:21:00,47.3,43.0,30.10,WNW,292,0.0,0.0,85,0.00,CLR,SKC,0.00,WeatherDisplay:10.37,2013-02-26 19:21:00,
2013-02-26 20:26:00,47.3,43.3,30.10,WNW,292,0.0,0.0,86,0.00,CLR,SKC,0.00,WeatherDisplay:10.37,2013-02-26 19:26:00,
2013-02-26 20:31:00,47.3,43.3,30.10,WNW,292,0.0,0.0,86,0.00,CLR,SKC,0.00,WeatherDisplay:10.37,2013-02-26 19:31:00,
2013-02-26 20:36:00,47.1,43.1,30.11,WNW,292,0.0,0.0,86,0.00,CLR,SKC,0.00,WeatherDisplay:10.37,2013-02-26 19:36:00,
2013-02-26 20:41:00,47.1,43.1,30.11,WNW,292,0.0,0.0,86,0.00,CLR,SKC,0.00,WeatherDisplay:10.37,2013-02-26 19:41:00,
2013-02-26 20:46:00,47.1,43.1,30.11,WNW,292,0.0,0.0,86,0.00,BKN,SKC,0.00,WeatherDisplay:10.37,2013-02-26 19:46:00,
2013-02-26 20:51:00,47.3,43.3,30.11,WNW,292,0.0,0.0,86,0.00,BKN,SKC,0.00,WeatherDisplay:10.37,2013-02-26 19:51:00,
2013-02-26 20:56:00,47.3,43.3,30.11,WNW,292,0.0,0.0,86,0.00,BKN,SKC,0.00,WeatherDisplay:10.37,2013-02-26 19:56:00,
2013-02-26 21:01:00,47.5,43.5,30.11,West,270,0.0,0.0,86,0.00,BKN,SKC,0.00,WeatherDisplay:10.37,2013-02-26 20:01:00,
2013-02-26 21:06:00,47.3,43.3,30.11,SSE,158,0.0,0.0,86,0.00,BKN,SKC,0.00,WeatherDisplay:10.37,2013-02-26 20:06:00,
2013-02-26 21:11:00,47.1,43.1,30.11,NE,45,0.0,0.0,86,0.00,BKN,SKC,0.00,WeatherDisplay:10.37,2013-02-26 20:11:00,
2013-02-26 21:16:00,46.9,43.3,30.11,North,0,0.0,0.0,87,0.00,BKN,SKC,0.00,WeatherDisplay:10.37,2013-02-26 20:16:00,
2013-02-26 21:21:00,46.9,43.3,30.11,East,90,0.0,0.0,87,0.00,BKN,SKC,0.00,WeatherDisplay:10.37,2013-02-26 20:21:00,
2013-02-26 21:26:00,46.9,43.3,30.11,WSW,248,0.0,0.0,87,0.00,BKN,SKC,0.00,WeatherDisplay:10.37,2013-02-26 20:26:00,
2013-02-26 21:31:00,46.9,43.3,30.11,WSW,248,0.0,0.0,87,0.00,BKN,SKC,0.00,WeatherDisplay:10.37,2013-02-26 20:31:00,
2013-02-26 21:36:00,46.8,43.1,30.11,NNE,22,0.0,0.0,87,0.00,BKN,SKC,0.00,WeatherDisplay:10.37,2013-02-26 20:36:00,
2013-02-26 21:41:00,46.6,42.9,30.11,NNE,22,0.0,0.0,87,0.00,BKN,SKC,0.00,WeatherDisplay:10.37,2013-02-26 20:41:00,
2013-02-26 21:46:00,46.6,42.9,30.11,North,0,0.0,0.0,87,0.00,BKN,SKC,0.00,WeatherDisplay:10.37,2013-02-26 20:46:00,
2013-02-26 21:52:00,46.6,42.9,30.12,NNE,22,0.0,0.0,87,0.00,BKN,SKC,0.00,WeatherDisplay:10.37,2013-02-26 20:52:00,
2013-02-26 21:57:00,46.2,42.6,30.11,NW,315,0.0,0.0,87,0.00,BKN,SKC,0.00,WeatherDisplay:10.37,2013-02-26 20:57:00,
2013-02-26 22:02:00,46.0,42.7,30.11,North,0,0.0,0.0,88,0.00,BKN,SKC,0.00,WeatherDisplay:10.37,2013-02-26 21:02:00,
2013-02-26 22:07:00,46.2,42.9,30.11,NW,315,0.9,1.1,88,0.00,BKN,SKC,0.00,WeatherDisplay:10.37,2013-02-26 21:07:00,
2013-02-26 22:12:00,46.6,43.2,30.11,NNW,338,0.7,1.1,88,0.00,BKN,SKC,0.00,WeatherDisplay:10.37,2013-02-26 21:12:00,
2013-02-26 22:17:00,46.6,43.2,30.11,NNW,338,0.0,0.0,88,0.00,BKN,SKC,0.00,WeatherDisplay:10.37,2013-02-26 21:17:00,
2013-02-26 22:22:00,46.6,43.2,30.12,NNE,22,0.0,0.0,88,0.00,BKN,SKC,0.00,WeatherDisplay:10.37,2013-02-26 21:22:00,
2013-02-26 22:27:00,46.2,42.9,30.12,North,0,0.4,0.7,88,0.00,BKN,SKC,0.00,WeatherDisplay:10.37,2013-02-26 21:27:00,
2013-02-26 22:32:00,46.6,43.2,30.12,NNW,338,0.9,2.3,88,0.00,BKN,SKC,0.00,WeatherDisplay:10.37,2013-02-26 21:32:00,
2013-02-26 22:37:00,46.8,43.4,30.12,NW,315,1.1,1.3,88,0.00,BKN,SKC,0.00,WeatherDisplay:10.37,2013-02-26 21:37:00,
2013-02-26 22:42:00,46.8,43.4,30.12,NNW,338,0.0,0.0,88,0.00,BKN,SKC,0.00,WeatherDisplay:10.37,2013-02-26 21:42:00,
2013-02-26 22:47:00,46.8,43.1,30.12,NNE,22,0.0,0.0,87,0.00,BKN,SKC,0.00,WeatherDisplay:10.37,2013-02-26 21:47:00,
2013-02-26 22:52:00,46.8,43.1,30.12,NNW,338,0.0,0.0,87,0.00,BKN,SKC,0.00,WeatherDisplay:10.37,2013-02-26 21:52:00,
2013-02-26 22:57:00,46.8,43.1,30.12,NE,45,1.1,1.1,87,0.00,BKN,SKC,0.00,WeatherDisplay:10.37,2013-02-26 21:57:00,
2013-02-26 23:02:00,46.6,42.9,30.12,NNW,338,0.2,1.1,87,0.00,BKN,SKC,0.00,WeatherDisplay:10.37,2013-02-26 22:02:00,
2013-02-26 23:07:00,46.6,42.9,30.12,NNW,338,0.0,0.0,87,0.00,BKN,SKC,0.00,WeatherDisplay:10.37,2013-02-26 22:07:00,
2013-02-26 23:12:00,46.2,42.6,30.12,NE,45,0.0,0.0,87,0.00,BKN,SKC,0.00,WeatherDisplay:10.37,2013-02-26 22:12:00,
2013-02-26 23:17:00,46.2,42.6,30.12,NNE,22,0.0,0.0,87,0.00,BKN,SKC,0.00,WeatherDisplay:10.37,2013-02-26 22:17:00,
2013-02-26 23:22:00,46.2,42.6,30.13,NNE,22,0.0,0.0,87,0.00,BKN,SKC,0.00,WeatherDisplay:10.37,2013-02-26 22:22:00,
2013-02-26 23:27:00,46.2,42.6,30.13,NNE,22,0.0,0.0,87,0.00,BKN,SKC,0.00,WeatherDisplay:10.37,2013-02-26 22:27:00,
2013-02-26 23:32:00,46.2,42.6,30.13,NE,45,1.3,1.3,87,0.00,BKN,SKC,0.00,WeatherDisplay:10.37,2013-02-26 22:32:00,
2013-02-26 23:37:00,46.2,42.6,30.13,NNE,22,0.0,0.0,87,0.00,BKN,SKC,0.00,WeatherDisplay:10.37,2013-02-26 22:37:00,
2013-02-26 23:42:00,46.2,42.9,30.13,NNE,22,0.0,0.0,88,0.00,BKN,SKC,0.00,WeatherDisplay:10.37,2013-02-26 22:42:00,
2013-02-26 23:47:00,46.2,42.9,30.13,NNE,22,0.0,0.0,88,0.00,BKN,SKC,0.00,WeatherDisplay:10.37,2013-02-26 22:47:00,
2013-02-26 23:52:00,46.0,42.7,30.13,NNW,338,0.0,0.0,88,0.00,BKN,SKC,0.00,WeatherDisplay:10.37,2013-02-26 22:52:00,
2013-02-26 23:57:00,46.0,42.7,30.14,NNE,22,0.0,0.0,88,0.00,BKN,SKC,0.00,WeatherDisplay:10.37,2013-02-26 22:57:00,